CZ-6A DEB

Satellite information

Favourite Embed

Satellite Type and Status

DEBRISIN ORBIT

Key statistics

Satellite CZ-6A DEB at a glance.

Uptime

495

Days in orbit

Revolutions

≈ 13.8

Per day

Orbit

LEO

Low Earth Orbit

Inclination

89.0

Latest

Satellite identification and parameters

Extended collection of information and parameters for CZ-6A DEB.

Object identification

Identified? True

Debris? True

Object name: CZ-6A DEB

International designator: 2024-140AAE

Object number (NORAD): 61472

Object ID (CCSDS): 61472

Country: PEOPLES REPUBLIC OF CHINA (PRC)

Current information (Y/N): Y

RCS size: SMALL

Orbital parameters

Period: 104.285 minutes

Inclination: 89.0436 deg

SMA: 7339.097 km

Apoapsis: 1128.673 km

Periapsis: 793.25 km

RAAN: 301.7071 deg

Eccentricy: 0.02285179

Argument of periapsis: 165.7234 deg

Mean anomaly: 195.0541 deg

Mean motion: 13.80825643 rev/day

Mean motion (dot): 0.00003522 rev/day2

B* drag term: 0.0027359299 1/REarth

Two-line elements (TLE)

Creation date: Dec. 13, 2025, 5:47 p.m.

Reference frame: TEME

Reference center: EARTH

Epoch: Dec. 13, 2025, 3:40 a.m. UTC

TLE line 0: 0 CZ-6A DEB

TLE line 1: 1 61472U 24140AAE 25347.15328692 .00003522 00000-0 27359-2 0 9998

TLE line 2: 2 61472 89.0436 301.7071 0228518 165.7234 195.0541 13.80825643 64213

Live tracking on map

Real-time ground track for satellite CZ-6A DEB.

In-orbit conjunctions

A list of the most updated potential collisions computed for object CZ-6A DEB.

Target Orbit TCA Probability of collision Miss distance Type
CZ-6A DEB SSO 2025-07-28 00:24:43 0.0001316127 401.0 (m) DEBRIS
FENGYUN 1C DEB SSO 2025-03-26 16:49:25 0.000347356 61.0 (m) DEBRIS
CZ-6A DEB LEO 2025-02-23 03:59:24 0.000724257 367.0 (m) DEBRIS
CZ-6A DEB LEO 2025-02-23 03:58:56 0.001158018 67.0 (m) DEBRIS
CZ-6A DEB LEO 2025-02-23 03:58:25 0.003945638 321.0 (m) DEBRIS

Associated space launch

18 Low Earth Orbit communication satellites with Ku, Q and V band payloads for the G60 constellation operated by Shanghai Spacecom Satellite Technology (SSST) with funding backed by the Shanghai local government. Initial constellation will consist of 1296 satellites by 2027 with long term plans to expand it to 12000 satellites.

CZ-6A DEB was lifted into orbit during the mission ‘Long March 6A | G60 Polar Group 01’, on board a Long March 6A space rocket.

The launch took place on Aug. 6, 2024, 6:42 a.m. from Launch Complex 9A.

For more information about the launch, click the button.

Launch to space Long March 6A | G60 Polar Group 01
Long March 6A | G60 Polar Group 01

Agency: N/A

Status: Launch Successful

Launch date: Aug. 6, 2024, 6:42 a.m. UTC

Rocket: Long March 6A

Launch pad: Launch Complex 9A

Location: Taiyuan Satellite Launch Center, People's Republic of China

...

Latest news about this satellite

News about space launch
Brightness of first Chinese broadband constellation satellites alarms astronomers

The first satellites of a Chinese broadband constellation are significantly brighter than those of Western systems, posing a new challenge for astronomers.

News about space launch
Chinese rocket stage breaks up into cloud of more than 700 pieces of space debris

HELSINKI — A Chinese Long March 6A rocket’s upper stage has fragmented into a cloud of over 700 pieces of space debris, adding to concerns about long-term orbital safety. China […]

News about space launch
China's Thousand Sails Megaconstellation Kicks Off with Dangerous Debris Field

China's Thousand Sails Megaconstellation Kicks Off with Dangerous Debris Field


Newsletter sign-up

Weekly statistics, charts and insights to help you stay on top of the space industry.